Flag for U.S.A. Weather past 2 weeks in Savannah, Georgia, U.S.A.

Now
79 °F

Overcast.


Feels Like: 84 °F
Forecast: 77 / 86 °F
Wind: 3 mph from North

Location: Hunter U. S. Army Airfield

Current Time: Jul 31, 2015 at 7:26:13 AM

Latest Report: Jul 31, 2015 at 5:58 AM


Visibility: 10 mi

Pressure: 29.89 "Hg

Humidity: 96%

Dew point: 78 °F

Location of SavannahLocation

Historic Weather in Savannah — Graph

°F

Savannah temperature yesterday

Maximum temperature yesterday: 92 °F (at 12:58 PM)
Minimum temperature yesterday: 76 °F (at 3:58 AM)
Average temperature yesterday: 85 °F

Past Weeks' High & Low Weather Summary

 TemperatureHumidityPressure
High98 °F (Jul 22, 4:58 PM)100% (Jul 16, 5:58 AM)30.04 "Hg (Jul 16, 5:58 AM)
Low73 °F (Jul 20, 3:58 AM)52% (Jul 22, 4:58 PM)29.80 "Hg (Jul 21, 3:58 PM)
Average82 °F85%29.92 "Hg
* Reported Jul 16 5:58 AM — Jul 31 5:58 AM, Savannah, Weather by CustomWeather, © 2015

Note: Actual official high and low records may vary slightly from our data, if they occured in-between our weather recording intervals... More about our weather records

Advertising

Savannah weather history for previous 24 hours

 ConditionsComfort  
Time TempWeatherWind HumidityBarometerVisibility
5:58 AM
Fri, Jul 31
79 °FOvercast.3 mph96%29.89 "Hg10 mi
4:58 AM79 °FOvercast.3 mph95%29.88 "Hg10 mi
3:58 AM80 °FPassing clouds.3 mph93%29.89 "Hg10 mi
2:58 AM81 °FPassing clouds.5 mph90%29.89 "Hg10 mi
1:58 AM81 °FPassing clouds.1 mph91%29.91 "Hg10 mi
12:58 AM82 °FThundershowers. Overcast.6 mph85%29.92 "Hg10 mi
11:58 PM
Thu, Jul 30
83 °FLight rain. Passing clouds.5 mph77%29.92 "Hg10 mi
10:58 PM85 °FPassing clouds.7 mph71%29.92 "Hg10 mi
9:58 PM85 °FPartly cloudy.7 mph75%29.91 "Hg10 mi
8:58 PM85 °FPassing clouds.3 mph78%29.89 "Hg10 mi
7:58 PM87 °FScattered clouds.6 mph66%29.88 "Hg10 mi
6:58 PM89 °FSunny.6 mph65%29.87 "Hg10 mi
5:58 PM90 °FSunny.9 mph64%29.86 "Hg10 mi
4:58 PM91 °FSunny.8 mph66%29.87 "Hg10 mi
3:58 PM91 °FSunny.10 mph70%29.88 "Hg10 mi
2:58 PM91 °FSunny.8 mph68%29.91 "Hg10 mi
1:58 PM90 °FScattered clouds.6 mph65%29.94 "Hg10 mi
12:58 PM92 °FSunny.3 mph63%29.96 "Hg10 mi
11:58 AM91 °FSunny.7 mph59%29.97 "Hg10 mi
10:58 AM90 °FSunny.1 mph59%29.96 "Hg10 mi
9:58 AM87 °FPassing clouds.2 mph64%29.95 "Hg10 mi
8:58 AM83 °FSunny.2 mph72%29.94 "Hg10 mi
7:58 AM80 °FSunny.7 mph84%29.93 "Hg10 mi
Weather by CustomWeather, © 2015

See weather overviewHow to use our weather pages